This is the latest recevied weather packets stored in our database for station/object KB4NWJ. If no packets are shown the sender has not sent any weather packets the latest 10 day(s).
| Time | Temp. | Humidity | Pressure | Rain* | Wind** | Luminosity | Snow |
|---|---|---|---|---|---|---|---|
| 1777916224 | 23.89° C | 44% | 1017.7 hPa | 0 mm | - | 665 W/m² | - |
| 1777915922 | 23.89° C | 46% | 1017.6 hPa | 0 mm | - | 724 W/m² | - |
| 1777915618 | 23.89° C | 43% | 1018.1 hPa | 0 mm | - | 672 W/m² | - |
| 1777915315 | 24.44° C | 41% | 1018.1 hPa | 0 mm | - | 657 W/m² | - |
| 1777915011 | 23.89° C | 45% | 1017.9 hPa | 0 mm | - | 690 W/m² | - |
| 1777914708 | 24.44° C | 44% | 1018.3 hPa | 0 mm | - | 726 W/m² | - |
| 1777914405 | 23.89° C | 47% | 1018.1 hPa | 0 mm | - | 686 W/m² | - |
| 1777914102 | 23.33° C | 47% | 1018.1 hPa | 0 mm | - | 681 W/m² | - |
| 1777913798 | 23.89° C | 44% | 1018.2 hPa | 0 mm | - | 686 W/m² | - |
| 1777913495 | 23.89° C | 44% | 1018.4 hPa | 0 mm | - | 645 W/m² | - |
| 1777913192 | 23.89° C | 45% | 1018.4 hPa | 0 mm | - | 567 W/m² | - |
| 1777912887 | 23.33° C | 46% | 1018.5 hPa | 0 mm | - | 580 W/m² | - |
| 1777912584 | 22.78° C | 45% | 1018.7 hPa | 0 mm | - | 723 W/m² | - |
| 1777912275 | 22.22° C | 48% | 1018.5 hPa | 0 mm | - | 737 W/m² | - |
| 1777911971 | 23.33° C | 45% | 1018.6 hPa | 0 mm | - | 666 W/m² | - |
| 1777911668 | 22.22° C | 49% | 1018.9 hPa | 0 mm | - | 669 W/m² | - |
| 1777911363 | 22.22° C | 46% | 1018.9 hPa | 0 mm | - | 654 W/m² | - |
| 1777911062 | 23.33° C | 45% | 1019 hPa | 0 mm | - | 627 W/m² | - |
| 1777910758 | 22.22° C | 50% | 1018.8 hPa | 0 mm | - | 708 W/m² | - |
| 1777910455 | 22.78° C | 46% | 1018.9 hPa | 0 mm | - | 742 W/m² | - |
| 1777910151 | 23.33° C | 48% | 1019 hPa | 0 mm | - | 736 W/m² | - |
| 1777909849 | 22.22° C | 47% | 1019 hPa | 0 mm | - | 750 W/m² | - |
| 1777909545 | 22.22° C | 48% | 1019 hPa | 0 mm | - | 724 W/m² | - |
| 1777909242 | 21.67° C | 47% | 1019 hPa | 0 mm | - | 757 W/m² | - |
| 1777908941 | 22.22° C | 50% | 1019.1 hPa | 0 mm | - | 769 W/m² | - |
* Rain latest hour (hover to see other rain measurements)
** Current wind speed in m/s (hover to see current wind gust speed)